Sussex, NJ

7:54 PM EST on December 08, 2016 (GMT -0500)
Sussex

Weather History for KFWN - January, 2012

Change the Weather History Date:

Friday, January 27, 2012

  Actual Average Record
Temperature  
Mean Temperature 44 °F -  
Max Temperature 54 °F 36 °F 63 °F (1950)
Min Temperature 33 °F 15 °F -13 °F (1987)
Degree Days  
Heating Degree Days 22    
Moisture  
Dew Point 37 °F    
Average Humidity 89    
Maximum Humidity 100    
Minimum Humidity 56    
Precipitation  
Precipitation 0.41 in - - ()
Sea Level Pressure  
Sea Level Pressure 29.54 in    
Wind  
Wind Speed 2 mph (WNW)    
Max Wind Speed 14 mph    
Max Gust Speed 24 mph    
Visibility 5 miles    
Events Rain    
Averages and records for this station are not official NWS values.
T = Trace of Precipitation, MM = Missing Value Source: NWS Daily Summary

Daily Weather History Graph

Daily Weather History Graph

Search for Another Location

Airport or City:

Trip Planner

Search our weather history database for the weather conditions in past years. The results will help you decide how hot, cold, wet, or windy it might be!

Date:

Astronomy

Jan. 27, 2012 Rise Set
Actual Time 7:14 AM EST 5:08 PM EST
Civil Twilight 6:44 AM EST 5:37 PM EST
Nautical Twilight 6:11 AM EST 6:11 PM EST
Astronomical Twilight 5:39 AM EST 6:43 PM EST
Moon 9:04 AM EST (1/27) 10:00 PM EST (1/27)
Length of Visible Light 10h 52m
Length of Day
9h 53m
Waxing Crescent, 19% of the Moon is Illuminated
Jan 27
Waxing Crescent
Jan 30
First Quarter
Feb 7
Full
Feb 14
Last Quarter
Feb 21
New

Hourly Weather History & Observations

Time (EST) Temp. Windchill Dew Point Humidity Pressure Visibility Wind Dir Wind Speed Gust Speed Precip Events Conditions
12:53 AM 34.0 °F - 33.1 °F 96% 29.79 in 4.0 mi Calm Calm - 0.02 in Rain Light Rain
1:39 AM 33.8 °F - 33.8 °F 100% 29.75 in 2.5 mi Calm Calm - 0.02 in Rain Light Rain
1:53 AM 34.0 °F - 33.1 °F 96% 29.76 in 3.0 mi Calm Calm - 0.04 in Rain Rain
2:53 AM 34.0 °F - 33.1 °F 96% 29.72 in 7.0 mi Calm Calm - 0.02 in   Overcast
3:33 AM 33.8 °F 29.6 °F 33.8 °F 100% 29.67 in 2.0 mi NE 4.6 mph - 0.01 in   Overcast
3:53 AM 34.0 °F 29.8 °F 33.1 °F 96% 29.67 in 2.0 mi NE 4.6 mph - 0.01 in   Overcast
4:41 AM 35.6 °F 31.7 °F 33.8 °F 93% 29.62 in 3.0 mi NE 4.6 mph - 0.03 in Rain Rain
4:53 AM 35.1 °F 31.0 °F 34.0 °F 96% 29.62 in 4.0 mi NE 4.6 mph - 0.05 in Rain Light Rain
5:53 AM 34.0 °F 28.8 °F 33.1 °F 96% 29.57 in 7.0 mi East 5.8 mph - 0.03 in   Overcast
6:23 AM 35.6 °F 32.8 °F 33.8 °F 93% 29.54 in 1.8 mi NE 3.5 mph - 0.09 in Rain Heavy Rain
6:30 AM 35.6 °F - 33.8 °F 93% 29.54 in 3.0 mi Calm Calm - 0.09 in Rain Light Rain
6:45 AM 35.6 °F - 35.6 °F 100% 29.54 in 2.0 mi Calm Calm - 0.17 in Rain Heavy Rain
6:53 AM 35.1 °F - 34.0 °F 96% 29.55 in 4.0 mi Calm Calm - 0.18 in Rain Light Rain
7:04 AM 35.6 °F - 33.8 °F 93% 29.53 in 5.0 mi Calm Calm - 0.00 in Rain Light Rain
8:21 AM 35.6 °F - 35.6 °F 100% 29.48 in 4.0 mi Calm Calm - 0.01 in   Overcast
8:53 AM 36.0 °F - 35.1 °F 97% 29.48 in 5.0 mi Calm Calm - 0.01 in   Overcast
9:14 AM 37.4 °F 33.8 °F 35.6 °F 93% 29.46 in 2.0 mi SSE 4.6 mph - 0.03 in Rain Light Rain
9:27 AM 37.4 °F 34.9 °F 35.6 °F 93% 29.46 in 3.0 mi NNE 3.5 mph - 0.04 in Rain Light Rain
9:35 AM 37.4 °F - 37.4 °F 100% 29.45 in 6.0 mi Calm Calm - 0.04 in   Overcast
9:41 AM 37.4 °F - 37.4 °F 100% 29.44 in 6.0 mi Calm Calm - 0.04 in   Overcast
9:53 AM 39.0 °F - 37.0 °F 93% 29.47 in 5.0 mi Calm Calm - 0.04 in   Overcast
10:11 AM 39.2 °F - 39.2 °F 100% 29.45 in 2.5 mi Calm Calm - 0.03 in Rain Light Rain
10:32 AM 39.2 °F - 39.2 °F 100% 29.42 in 2.5 mi Calm Calm - 0.06 in Rain Light Rain
10:35 AM 41.0 °F - 39.2 °F 93% 29.41 in 3.0 mi Calm Calm - 0.06 in Rain Light Rain
11:00 AM 42.8 °F - 41.0 °F 93% 29.40 in 4.0 mi Calm Calm - N/A   Overcast
11:48 AM 44.6 °F 43.1 °F 42.8 °F 93% 29.39 in 5.0 mi WSW 3.5 mph - N/A   Overcast
11:53 AM 44.1 °F - 43.0 °F 96% 29.39 in 4.0 mi Calm Calm - N/A   Overcast
12:04 PM 44.6 °F - 44.6 °F 100% 29.37 in 5.0 mi Calm Calm - N/A   Overcast
12:53 PM 48.9 °F - 48.0 °F 97% 29.35 in 5.0 mi SW 3.5 mph - N/A   Overcast
1:08 PM 48.2 °F - 48.2 °F 100% 29.34 in 5.0 mi SW 5.8 mph - N/A   Overcast
1:53 PM 52.0 °F - 50.0 °F 93% 29.35 in 5.0 mi SSW 9.2 mph - 0.01 in   Overcast
2:10 PM 53.6 °F - 51.8 °F 94% 29.33 in 7.0 mi SW 8.1 mph - N/A   Mostly Cloudy
2:53 PM 54.0 °F - 46.9 °F 77% 29.38 in 10.0 mi WSW 10.4 mph 19.6 mph N/A   Overcast
3:53 PM 51.1 °F - 41.0 °F 68% 29.44 in 10.0 mi Variable 6.9 mph 20.7 mph N/A   Overcast
4:53 PM 48.9 °F - 34.0 °F 56% 29.52 in 10.0 mi Variable 3.5 mph 19.6 mph N/A   Mostly Cloudy
5:53 PM 46.9 °F - 32.0 °F 56% 29.57 in 10.0 mi WNW 13.8 mph 21.9 mph N/A   Scattered Clouds
6:53 PM 45.0 °F 40.1 °F 30.9 °F 58% 29.64 in 10.0 mi West 9.2 mph 19.6 mph N/A   Partly Cloudy
7:53 PM 44.1 °F 38.1 °F 30.0 °F 58% 29.70 in 10.0 mi West 11.5 mph 24.2 mph N/A   Overcast
9:53 PM 42.1 °F 38.4 °F 28.9 °F 60% 29.80 in 10.0 mi Variable 5.8 mph 17.3 mph N/A   Overcast
10:53 PM 42.1 °F 40.2 °F 28.0 °F 58% 29.83 in 10.0 mi Variable 3.5 mph 16.1 mph N/A   Overcast
11:53 PM 41.0 °F 35.8 °F 28.0 °F 60% 29.87 in 10.0 mi WNW 8.1 mph 19.6 mph N/A   Overcast